Regional Weather Roundup
Issued by NWS

Home | Current Version | Previous Version | Text Only | Print | Product List | Glossary On
Versions: 1 2 3 4 5 6 7 8 9 10 11 12 13 14 15 16 17 18 19 20 21 22 23 24 25 26 27 28 29 30 31 32 33 34 35 36 37 38 39 40 41 42 43 44 45 46 47 48 49 50
000
ASUS43 KMPX 260610
RWRMN
WEATHER ROUNDUP FOR MINNESOTA
NATIONAL WEATHER SERVICE TWIN CITIES/CHANHASSEN MN
100 AM CDT SAT MAY 26 2018


NOTE: "FAIR" INDICATES FEW OR NO CLOUDS BELOW 12,000 FEET WITH NO
SIGNIFICANT WEATHER AND/OR OBSTRUCTIONS TO VISIBILITY. N/A MEANS
CURRENT SKY AND/OR WEATHER CONDITIONS ARE NOT AVAILABLE.

MNZ060>063-068>070-260700-
   Twin Cities Metro

CITY           SKY/WX    TMP DP  RH WIND       PRES   REMARKS
TWIN CITIES    FAIR      71  61  70 SW5       29.71S
6HR MIN TEMP:  71; 6HR MAX TEMP:  85;

ST PAUL        FAIR      68  60  75 SE5       29.70S
CRYSTAL        FAIR      67  58  72 S5        29.68F
BLAINE         FAIR      66  59  77 S3        29.69F
LAKEVILLE      FAIR      64  59  82 S3        29.71F
EDEN PRAIRIE   FAIR      66  60  81 S7        29.70S
6HR MIN TEMP:  66; 6HR MAX TEMP:  75;

SOUTH ST PAUL  FAIR      69  58  67 S3        29.70S
LAKE ELMO      FAIR      64  61  88 S6        29.71S
$$
MNZ001>005-007-008-013>017-022>024-027-028-260700-
   Northwest Minnesota

CITY           SKY/WX    TMP DP  RH WIND       PRES   REMARKS
BEMIDJI        FAIR      67  53  60 S5        29.63S
HALLOCK        FAIR      64  54  68 W6        29.59S
ROSEAU         FAIR      66  59  77 SW6       29.59R
WARROAD        FAIR      61  55  82 CALM      29.59R
THIEF RVR FALL FAIR      65  57  75 W5        29.62S
CROOKSTON      FAIR      64  57  77 CALM      29.62R
FOSSTON        FAIR      63  54  72 S3        29.63S
DETROIT LAKES  FAIR      70  54  56 CALM      29.66S
MOORHEAD       FAIR      72  48  43 W3        29.63S
PARK RAPIDS    FAIR      66  54  65 CALM      29.64S
MAHNOMEN       FAIR      64  53  68 SW7       29.63S
$$
MNZ006-009>011-018-025>026-260700-
   North Central Minnesota

CITY           SKY/WX    TMP DP  RH WIND       PRES   REMARKS
BAUDETTE         N/A     62  55  77 MISG      29.58F
INTL FALLS     FAIR      59  59 100 CALM      29.60S
6HR MIN TEMP:  59; 6HR MAX TEMP:  85; 6HR PCP:  0.15;

WASKISH        FAIR      63  55  77 CALM      29.61S
BIG FORK       FAIR      64  55  72 CALM      29.62F
LONGVILLE      FAIR      59  57  94 CALM      29.63F
GRAND RAPIDS   TSTM      67  59  75 SW7       29.68R
ORR            CLOUDY    63  59  88 CALM      29.62R
COOK           MOCLDY    64  55  72 N3        29.65R
WALKER         FAIR      61  55  78 NE6       29.64R
$$
MNZ012-019>021-037-260700-
   Northeast Minnesota

CITY           SKY/WX    TMP DP  RH WIND       PRES   REMARKS
DULUTH         FAIR      71  60  68 SW8       29.65S
6HR MIN TEMP:  68; 6HR MAX TEMP:  84;

ELY            FAIR      63  55  77 SE6       29.63F
HIBBING        MOCLDY    58  55  90 NW8       29.65R
EVELETH        FAIR      59  57  94 CALM      29.64F
DULUTH HARBOR  FAIR      66  63  88 SW7       29.63S
TWO HARBORS    FAIR      61  55  82 CALM      29.62S
SILVER BAY     FAIR      59  57  94 CALM      29.62S
GRAND MARAIS     N/A     42  40  92 SW5       29.62R
G MARAIS ARPRT FAIR      55  52  88 CALM      29.67S
$$
MNZ029>031-032-039>041-046>048-054>057-064-260700-
   West Central Minnesota

CITY           SKY/WX    TMP DP  RH WIND       PRES   REMARKS
FERGUS FALLS   FAIR      70  52  52 W6        29.61R
WHEATON        CLEAR     72  54  53 SW8       29.68R
MORRIS         CLEAR     70  52  52 W7        29.67S
ALEXANDRIA     FAIR      70  56  61 SW8       29.69S
ELBOW LAKE     FAIR      63  51  64 S7        29.67S
WADENA         FAIR      70  55  60 SW6       29.64F
GLENWOOD       FAIR      66  59  77 S5        29.67S
BENSON         CLEAR     64  61  88 SW6       29.70S
ORTONVILLE     CLEAR     72  54  53 W6        29.69S
MADISON        CLEAR     70  57  64 SW6       29.70S
WILLMAR        FAIR      64  57  77 SE6       29.73S
$$
MNZ033>034-036-042>043-049>051-058-059-260700-
   Central Minnesota

CITY           SKY/WX    TMP DP  RH WIND       PRES   REMARKS
ST CLOUD       FAIR      67  56  67 MISG      29.68S
6HR MIN TEMP:  67; 6HR MAX TEMP:  88;

SAUK CENTRE    FAIR      67  57  69 S5        29.68F
PAYNESVILLE    FAIR      68  61  78 CALM      29.70S
AITKIN         FAIR      68  57  68 S5        29.64S
PINE RIVER     FAIR      57  54  88 CALM      29.68F
BRAINERD       FAIR      71  57  61 S6        29.65F
STAPLES        FAIR      66  57  72 S6        29.65S
LONG PRAIRIE   FAIR      63  57  82 SE7       29.68S
LITTLE FALLS   FAIR      68  59  73 S5        29.67F
LITCHFIELD     FAIR      68  63  83 CALM      29.71S
BUFFALO        FAIR      66  57  71 S3        29.71S
MAPLE LAKE     FAIR      67  61  79 S3        29.70F
HUTCHINSON     FAIR      66  60  82 CALM      29.72F
$$
MNZ037-044-045-052-053-260700-
   East Central Minnesota

CITY           SKY/WX    TMP DP  RH WIND       PRES   REMARKS
PRINCETON      FAIR      68  57  68 S5        29.69S
MORA           FAIR      64  57  77 S5        29.69F
CAMBRIDGE      FAIR      72  57  60 S6        29.69S
RUSH CITY      FAIR      67  61  79 S5        29.69S
MOOSE LAKE     FAIR      64  57  77 SW3       29.65S
HINCKLEY       FAIR      68  61  77 CALM      29.67F
CLOQUET        FAIR      68  55  64 S7        29.66R
MCGREGOR       FAIR      68  59  73 S3        29.65S
$$
MNZ071>073-080-081-089-090-097-098-260700-
   Southwest Minnesota

CITY           SKY/WX    TMP DP  RH WIND       PRES   REMARKS
MONTEVIDEO     CLEAR     72  61  68 W8        29.69S
CANBY          CLEAR     73  53  50 SW7       29.72S
MARSHALL       CLEAR     70  59  68 SW10      29.72S
REDWOOD FALLS  CLEAR     67  61  81 SW9       29.70S
OLIVIA         CLEAR     68  61  77 S5        29.70F
PIPESTONE      CLEAR     64  59  82 CALM      29.77S
WINDOM         CLEAR     68  48  49 S5        29.75S
WORTHINGTON    CLEAR     67  58  72 SW8       29.77S
JACKSON        CLEAR     64  59  82 S3        29.77R
TRACY          CLEAR     70  60  70 SW8       29.73S
SLAYTON        RAIN      71  57  61 W10       29.77S
$$
MNZ065>067-074>077-082>085-091>093-260700-
   South Central Minnesota

CITY           SKY/WX    TMP DP  RH WIND       PRES   REMARKS
MANKATO        FAIR      67  60  78 S9        29.73F
NEW ULM        CLEAR     64  59  82 SE6       29.72S
ST JAMES       CLEAR     66  61  82 SE8       29.74F
FAIRMONT       CLEAR     67  60  78 S10       29.75S
GLENCOE        FAIR      68  60  76 S7        29.71S
FARIBAULT      FAIR      64  61  88 CALM      29.73F
OWATONNA       FAIR      66  61  82 S13       29.74S
WASECA         FAIR      64  59  82 SE7       29.75F
ALBERT LEA     FAIR      66  61  82 SE9       29.76S
$$
MNZ078>079-086>088-094>096-260700-
   Southeast Minnesota

CITY           SKY/WX    TMP DP  RH WIND       PRES   REMARKS
ROCHESTER      FAIR      64  62  93 S13       29.75S
6HR MIN TEMP:  62; 6HR MAX TEMP:  76; 6HR PCP:  0.32;

RED WING       FAIR      66  57  72 CALM      29.70F
STANTON        FAIR      66  60  79 S6        29.70F
DODGE CENTER   FAIR      64  61  88 S10       29.75S
WINONA         FAIR      66  61  82 W3        29.71F
AUSTIN         FAIR      63  61  94 S6        29.76S
PRESTON        FAIR      63  59  88 S12       29.76F
$$
ABBREVIATIONS USED IN REMARKS
   TC - TEMPERATURES IN CELSIUS
  WCI - WIND CHILL INDEX
   HX - HEAT INDEX
  VSB - VISIBILITY
$$




USA.gov is the U.S. government's official web portal to all federal, state and local government web resources and services.